[[{"header":{"parameterUnit":"m.s-1","parameterCategory":2,"la1":30.2992,"la2":30.254,"lo1":-89.0895,"lo2":-89.0443,"dy":0.0025,"dx":0.0025,"nx":19,"ny":19,"refTime":"2026-05-16T09:00:00:Z","depth":"0","parameterNumber":2,"parameterNumberName":"U-component_of_CURRENTS"},"data":[0,0,0,0.0058,0.006,0.0152,0.0153,0.0207,0.0208,0,0,0,0,0,0,0,0,0,0,0,0.0028,0.0028,0.0058,0.006,0.0152,0.0153,0.0207,0.0208,0,0,0,0,0,0,0,0,0,0,0,0.0028,0.0028,0.0029,0.006,0.0152,0.0153,0.0207,0.0157,0,0,0,0,0,0,0,0,0,0,0.0076,0.0056,0.0028,0.0029,0.006,0.0152,0.0153,0.0155,0.016,0.0142,0,0.0152,0,0.0171,0.0208,0.0208,0,0,0,0.0075,0.0052,0.007,0.0029,0.0061,0.0152,0.0115,0.0159,0.0164,0.0148,0.0153,0.0155,0.0172,0.0208,0.0209,0.0241,0.0241,0,0,0.0069,0.0052,0.0067,0.0073,0.0077,0.0112,0.0117,0.0163,0.0166,0.0153,0.0157,0.0173,0.0209,0.0209,0.0241,0.0241,0,0,0,0.0045,0.0049,0.0068,0.007,0.0087,0.0114,0.0121,0.0165,0.0169,0.0158,0.0174,0.0209,0.0209,0.0241,0.0241,0.0222,0,0,0,0.0042,0.0033,0.0065,0.0057,0.0086,0.0136,0.0122,0.0167,0.0172,0.0174,0.0209,0.0209,0.024,0.0241,0.0222,0.021,0,0,0,0.0025,0.0032,0.0039,0.0056,0.0089,0.0136,0.0145,0.0169,0.0181,0.0208,0.0209,0.024,0.0241,0.0222,0.021,0.0213,0,0,0,0.0011,0.0032,0.0038,0.0064,0.0088,0.0134,0.0145,0.0185,0.0209,0.0209,0.024,0.0241,0.0222,0.021,0.0213,0.0231,0.0232,0,0,0.0032,0.0034,0.0049,0.0056,0.0096,0.0123,0.0158,0.0193,0.0212,0.0222,0.0224,0.0222,0.021,0.0213,0.0267,0.0267,0,0,0,0.0052,0.0065,0.0075,0.0101,0.0126,0.0155,0.0189,0.0198,0.0231,0.0227,0.024,0.0234,0.0236,0.0247,0.0248,0.0186,0.0244,0.0244,0.0244,0.0071,0.0085,0.0118,0.014,0.0156,0.0181,0.0195,0.0218,0.0226,0.0243,0.0232,0.024,0.0253,0.0253,0.019,0.025,0.025,0.025,0.025,0.0119,0.0147,0.0151,0.0182,0.0187,0.0203,0.0212,0.0216,0.0223,0.0237,0.024,0.0244,0.0252,0.0185,0.0249,0.0249,0.025,0.025,0.025,0.0152,0.0167,0.0181,0.0215,0.0218,0.0212,0.0211,0.0206,0.0216,0.021,0.0238,0.0238,0.0167,0.0218,0.0218,0.0218,0.0218,0.0218,0.0218,0.0179,0.0199,0.0224,0.024,0.0239,0.023,0.0214,0.0218,0.0224,0.0222,0.0222,0.0168,0.023,0.0217,0.0217,0.0218,0.0218,0.0218,0.0218,0.0229,0.0228,0.0272,0.028,0.0279,0.0274,0.025,0.0256,0.0256,0.0268,0.0164,0.0233,0.0241,0.0241,0.023,0.0233,0.0233,0.0233,0.0233,0.0254,0.0259,0.0315,0.0333,0.0332,0.0302,0.0318,0.0323,0.0254,0.0188,0.0134,0.0133,0.0135,0.0136,0.0139,0.0126,0.0103,0.0102,0.0102,0.0286,0.0301,0.0344,0.0363,0.0355,0.0338,0.0343,0.0386,0.0247,0.0088,0.0042,0.0047,0.0037,0.0046,0.0043,0.0052,0.0029,0,0]},{"header":{"parameterUnit":"m.s-1","parameterCategory":2,"la1":30.2992,"la2":30.254,"lo1":-89.0895,"lo2":-89.0443,"dy":0.0025,"dx":0.0025,"nx":19,"ny":19,"refTime":"2026-05-16T09:00:00:Z","depth":"0","parameterNumber":3,"parameterNumberName":"V-component_of_CURRENTS"},"data":[0,0,0,0.0253,0.0255,0.0318,0.0318,0.0428,0.0429,0,0,0,0,0,0,0,0,0,0,0,0.0227,0.0227,0.0253,0.0255,0.0318,0.0318,0.0427,0.0429,0,0,0,0,0,0,0,0,0,0,0,0.0227,0.0227,0.0228,0.0255,0.0318,0.0318,0.0427,0.0372,0,0,0,0,0,0,0,0,0,0,0.0307,0.0272,0.0227,0.0228,0.0256,0.0318,0.0318,0.0369,0.0376,0.0408,0,0.0416,0,0.0429,0.0437,0.0437,0,0,0,0.0253,0.0267,0.0292,0.0228,0.0256,0.0317,0.0289,0.0372,0.038,0.0417,0.0418,0.0422,0.0431,0.0438,0.0438,0.0531,0.0531,0,0,0.025,0.0233,0.0287,0.0297,0.0272,0.0287,0.0291,0.0376,0.038,0.0418,0.0425,0.0433,0.0438,0.0439,0.0531,0.0531,0,0,0,0.0241,0.023,0.0253,0.0292,0.0304,0.0289,0.0293,0.0376,0.0386,0.0426,0.0434,0.0439,0.0441,0.0531,0.0531,0.0468,0,0,0,0.0239,0.0225,0.0251,0.0241,0.0302,0.0335,0.029,0.0379,0.039,0.0434,0.0439,0.0442,0.053,0.0531,0.047,0.044,0,0,0,0.0224,0.0224,0.0232,0.024,0.0269,0.0334,0.0348,0.0382,0.0395,0.0437,0.0442,0.053,0.0531,0.0471,0.0443,0.044,0,0,0,0.0203,0.0201,0.0232,0.0221,0.0269,0.0278,0.0348,0.0366,0.0394,0.044,0.053,0.0531,0.0472,0.0444,0.0441,0.0484,0.0482,0,0,0.0185,0.0198,0.0188,0.0217,0.0193,0.0269,0.0271,0.0344,0.0415,0.0504,0.0506,0.0469,0.0443,0.044,0.0499,0.0495,0,0,0,0.0171,0.0159,0.0155,0.0152,0.0177,0.0213,0.0279,0.0337,0.0428,0.0435,0.0492,0.0478,0.0477,0.0508,0.0505,0.0637,0.0532,0.0532,0.0532,0.0116,0.0118,0.0087,0.0094,0.0107,0.0179,0.0228,0.0331,0.0386,0.043,0.0444,0.0421,0.0453,0.0452,0.0587,0.0465,0.0465,0.0465,0.0465,0.0061,0.0044,0.0041,0.0016,0.0058,0.0083,0.0205,0.027,0.0368,0.0419,0.0422,0.0461,0.0445,0.0591,0.0461,0.0462,0.0462,0.0462,0.0463,0.0027,0.0022,0.0004,-0.0024,-0.0013,0.0044,0.0104,0.0209,0.0313,0.033,0.039,0.0392,0.0507,0.0334,0.0334,0.0334,0.0334,0.0334,0.0334,0.0015,-0.0005,-0.0036,-0.0063,-0.007,-0.0045,0.0062,0.0124,0.0246,0.0333,0.0334,0.0528,0.0382,0.0372,0.0331,0.0332,0.0332,0.0332,0.0332,-0.0018,-0.0017,-0.0064,-0.0086,-0.01,-0.008,-0.0013,0.0114,0.0189,0.0246,0.0523,0.0352,0.0381,0.0385,0.0376,0.0339,0.0339,0.0339,0.0339,-0.0031,-0.0039,-0.009,-0.0111,-0.0118,-0.0085,0.0005,0.0148,0.04,0.0572,0.06,0.0656,0.065,0.0698,0.0695,0.0695,0.0739,0.074,0.0741,-0.0061,-0.0071,-0.0106,-0.0118,-0.0123,-0.0075,0.0033,0.026,0.0641,0.077,0.0774,0.0757,0.0852,0.0831,0.0917,0.0902,0.0906,0,0]}],[{"header":{"parameterUnit":"m.s-1","parameterCategory":2,"la1":30.2992,"la2":30.254,"lo1":-89.0895,"lo2":-89.0443,"dy":0.0025,"dx":0.0025,"nx":19,"ny":19,"refTime":"2026-05-16T09:00:00:Z","depth":"2","parameterNumber":2,"parameterNumberName":"U-component_of_CURRENTS"},"data":[0,0,0,-0.0022,-0.0021,0.007,0.007,0.0101,0.01,0,0,0,0,0,0,0,0,0,0,0,-0.0045,-0.0044,-0.0023,-0.0021,0.0069,0.007,0.0101,0.01,0,0,0,0,0,0,0,0,0,0,0,-0.0045,-0.0044,-0.0044,-0.0021,0.0069,0.007,0.0101,0.0058,0,0,0,0,0,0,0,0,0,0,-0.0018,-0.0033,-0.0045,-0.0044,-0.002,0.0069,0.007,0.0057,0.006,0.003,0,0.0043,0,0.0058,0.0099,0.0099,0,0,0,-0.0003,-0.0036,-0.0016,-0.0044,-0.002,0.0069,0.0034,0.006,0.0063,0.0034,0.0043,0.0045,0.0059,0.0099,0.0099,0.0087,0.0087,0,0,-0.0008,-0.0025,-0.0019,-0.0014,-0.0,0.0031,0.0036,0.0063,0.0065,0.0044,0.0046,0.0059,0.0099,0.0098,0.0087,0.0087,0,0,0,-0.0035,-0.0028,-0.0007,-0.0016,-0.0,0.0033,0.0039,0.0065,0.0071,0.0046,0.0059,0.0098,0.0098,0.0087,0.0087,0.0101,0,0,0,-0.0037,-0.0045,-0.0009,-0.0017,-0.0,0.0044,0.004,0.007,0.0073,0.0059,0.0098,0.0098,0.0087,0.0087,0.0101,0.0054,0,0,0,-0.0048,-0.0046,-0.0037,-0.0019,0.0012,0.0044,0.0054,0.0072,0.0079,0.0099,0.0098,0.0087,0.0087,0.01,0.0055,0.009,0,0,0,-0.0065,-0.004,-0.0037,-0.0023,0.001,-0.001,0.0054,0.0057,0.0067,0.0098,0.0087,0.0087,0.01,0.0055,0.009,0.0043,0.0039,0,0,-0.0041,-0.0037,-0.0033,-0.003,-0.0054,-0.0021,-0.0007,0.0049,0.0063,0.0075,0.0076,0.0101,0.0055,0.009,0.0049,0.0045,0,0,0,-0.0032,-0.0029,-0.0034,-0.0053,-0.0074,-0.0057,-0.0015,0.0024,0.0085,0.0069,0.0099,0.0068,0.0091,0.0062,0.006,0.0088,0.0088,0.0088,0.0088,-0.0018,-0.0046,-0.0053,-0.0074,-0.009,-0.0087,-0.0047,0.0008,0.0044,0.0085,0.0081,0.0108,0.0079,0.0076,0.011,0.011,0.0111,0.0111,0.0111,-0.0005,-0.0012,-0.0057,-0.0057,-0.0089,-0.0093,-0.0067,-0.0018,0.0074,0.0089,0.0113,0.0078,0.0074,0.0112,0.0111,0.0111,0.0111,0.0111,0.0111,0.0019,0.0009,0.0002,-0.0024,-0.0063,-0.0073,-0.0032,-0.0001,0.003,0.0068,0.0078,0.0077,0.0109,0.0116,0.0116,0.0116,0.0116,0.0116,0.0116,0.0037,0.002,0.003,0.0011,0.0013,0.0008,-0.001,0.0024,0.0027,0.0046,0.0047,0.011,0.0109,0.0108,0.0116,0.0116,0.0116,0.0116,0.0116,0.0072,0.0053,0.0095,0.0106,0.0087,0.0107,0.0074,0.0063,0.0092,0.007,0.0052,0.0054,0.004,0.0041,0.0038,0.0027,0.0027,0.0027,0.0027,0.0093,0.0081,0.0125,0.0145,0.017,0.0133,0.0163,0.0061,-0.0021,-0.0145,-0.0138,-0.0154,-0.0145,-0.0171,-0.0164,-0.0172,-0.0239,-0.0239,-0.024,0.0112,0.0129,0.0188,0.0181,0.0179,0.0183,0.0173,-0.0004,-0.0294,-0.0254,-0.0218,0.0015,0.0013,0.0018,-0.0004,-0.0001,-0.0006,0,0]},{"header":{"parameterUnit":"m.s-1","parameterCategory":2,"la1":30.2992,"la2":30.254,"lo1":-89.0895,"lo2":-89.0443,"dy":0.0025,"dx":0.0025,"nx":19,"ny":19,"refTime":"2026-05-16T09:00:00:Z","depth":"2","parameterNumber":3,"parameterNumberName":"V-component_of_CURRENTS"},"data":[0,0,0,0.0074,0.0075,0.0131,0.0132,0.023,0.023,0,0,0,0,0,0,0,0,0,0,0,0.0058,0.0058,0.0073,0.0075,0.0131,0.0132,0.0229,0.0231,0,0,0,0,0,0,0,0,0,0,0,0.0058,0.0058,0.0059,0.0075,0.0131,0.0132,0.0229,0.018,0,0,0,0,0,0,0,0,0,0,0.0122,0.0093,0.0058,0.0059,0.0075,0.0131,0.0132,0.0178,0.0184,0.0211,0,0.0223,0,0.0228,0.0238,0.0238,0,0,0,0.0076,0.0088,0.0114,0.0059,0.0076,0.0131,0.0106,0.0181,0.0187,0.0218,0.0224,0.0228,0.023,0.0238,0.0239,0.0306,0.0306,0,0,0.0073,0.0059,0.0109,0.0118,0.0096,0.0104,0.0108,0.0184,0.0188,0.0225,0.023,0.0231,0.0239,0.024,0.0306,0.0306,0,0,0,0.0063,0.0056,0.008,0.0114,0.0122,0.0106,0.011,0.0184,0.0195,0.0231,0.0233,0.0239,0.0241,0.0306,0.0306,0.0266,0,0,0,0.0061,0.0051,0.0078,0.0069,0.012,0.0147,0.0108,0.019,0.0199,0.0232,0.024,0.0242,0.0306,0.0306,0.0267,0.0205,0,0,0,0.0054,0.0049,0.006,0.0068,0.0093,0.0146,0.0161,0.0192,0.02,0.0238,0.0242,0.0306,0.0306,0.0268,0.0208,0.0267,0,0,0,0.0032,0.0033,0.006,0.0042,0.0092,0.0047,0.016,0.0147,0.0165,0.024,0.0306,0.0306,0.0268,0.021,0.0268,0.0326,0.0327,0,0,0.0017,0.0031,0.0014,0.0038,-0.0031,0.0039,0.0016,0.0107,0.0184,0.0283,0.0285,0.0266,0.0209,0.0267,0.0319,0.032,0,0,0,-0.0004,-0.0025,-0.0041,-0.0073,-0.0085,-0.0067,-0.0001,0.0077,0.0199,0.0198,0.0275,0.0239,0.0279,0.0315,0.0316,0.0305,0.0305,0.0305,0.0305,-0.0064,-0.0087,-0.0144,-0.017,-0.0187,-0.0143,-0.0082,0.0045,0.0123,0.0192,0.0215,0.0233,0.0271,0.0273,0.0249,0.0249,0.0249,0.0249,0.0249,-0.0145,-0.0182,-0.0216,-0.0266,-0.0252,-0.025,-0.013,-0.0032,0.0143,0.0187,0.0231,0.0279,0.0272,0.0246,0.0246,0.0247,0.0247,0.0247,0.0247,-0.0185,-0.0205,-0.0238,-0.0306,-0.0322,-0.0283,-0.0193,-0.007,0.0067,0.0126,0.0247,0.0249,0.0217,0.0189,0.0189,0.0189,0.0189,0.0189,0.0189,-0.0205,-0.0249,-0.0295,-0.0346,-0.0349,-0.0321,-0.0213,-0.0111,0.0059,0.018,0.0183,0.0214,0.0216,0.0215,0.0189,0.0189,0.0189,0.0189,0.0189,-0.0255,-0.0275,-0.0324,-0.0344,-0.0366,-0.0311,-0.0241,-0.005,0.0081,0.0162,0.0253,0.0251,0.0277,0.0278,0.0279,0.0271,0.0271,0.0271,0.0271,-0.0282,-0.0303,-0.0367,-0.0392,-0.0374,-0.0323,-0.0161,0.0036,0.0213,0.0353,0.035,0.0368,0.0364,0.0396,0.0393,0.0397,0.042,0.042,0.042,-0.0334,-0.0337,-0.0363,-0.0398,-0.0394,-0.0298,-0.0122,0.0096,0.0369,0.0425,0.036,0.0284,0.0302,0.0298,0.0341,0.034,0.0344,0,0]}],[{"header":{"parameterUnit":"m.s-1","parameterCategory":2,"la1":30.2992,"la2":30.254,"lo1":-89.0895,"lo2":-89.0443,"dy":0.0025,"dx":0.0025,"nx":19,"ny":19,"refTime":"2026-05-16T09:00:00:Z","depth":"4","parameterNumber":2,"parameterNumberName":"U-component_of_CURRENTS"},"data":[0,0,0,-0.0634,-0.0637,-0.0757,-0.0757,-0.0855,-0.0856,0,0,0,0,0,0,0,0,0,0,0,-0.0589,-0.059,-0.0634,-0.0637,-0.0757,-0.0757,-0.0855,-0.0856,0,0,0,0,0,0,0,0,0,0,0,-0.0588,-0.059,-0.0591,-0.0638,-0.0757,-0.0757,-0.0855,-0.0776,0,0,0,0,0,0,0,0,0,0,-0.0665,-0.0637,-0.0589,-0.0591,-0.0639,-0.0756,-0.0757,-0.0772,-0.0781,-0.079,0,-0.0819,0,-0.0847,-0.0863,-0.0863,0,0,0,-0.0625,-0.063,-0.0665,-0.0591,-0.064,-0.0756,-0.0699,-0.0777,-0.0787,-0.08,-0.0821,-0.0825,-0.0849,-0.0863,-0.0864,-0.0957,-0.0957,0,0,-0.0619,-0.0606,-0.0658,-0.0671,-0.0685,-0.0696,-0.0703,-0.0783,-0.0797,-0.0821,-0.0828,-0.085,-0.0864,-0.0865,-0.0957,-0.0957,0,0,0,-0.0608,-0.0601,-0.0635,-0.0666,-0.0697,-0.0699,-0.0708,-0.0793,-0.0805,-0.0829,-0.0852,-0.0865,-0.0866,-0.0956,-0.0957,-0.1025,0,0,0,-0.0603,-0.0596,-0.0632,-0.0624,-0.0696,-0.0755,-0.0716,-0.0799,-0.081,-0.0851,-0.0865,-0.0867,-0.0956,-0.0957,-0.1023,-0.103,0,0,0,-0.0581,-0.0594,-0.0612,-0.0624,-0.0682,-0.0755,-0.0771,-0.0802,-0.0824,-0.0863,-0.0867,-0.0956,-0.0956,-0.102,-0.1026,-0.104,0,0,0,-0.0555,-0.0603,-0.0612,-0.0676,-0.0681,-0.0756,-0.0771,-0.0837,-0.0874,-0.0865,-0.0956,-0.0957,-0.102,-0.1024,-0.1038,-0.088,0,0,0,-0.0599,-0.0608,-0.0645,-0.0657,-0.0735,-0.0738,-0.0805,-0.0864,-0.0883,-0.0923,-0.0926,-0.1024,-0.1026,-0.104,-0.0923,0,0,0,0,-0.0649,-0.0675,-0.0702,-0.0752,-0.0796,-0.0827,-0.0872,-0.0895,-0.0966,-0.0912,-0.1019,-0.1017,-0.1024,-0.0926,-0.096,-0.096,-0.096,-0.096,-0.096,-0.066,-0.0699,-0.0758,-0.0807,-0.0846,-0.0894,-0.0928,-0.0963,-0.099,-0.1034,-0.1071,-0.1121,-0.1021,-0.1079,-0.1079,-0.108,-0.108,-0.108,-0.108,-0.0713,-0.0747,-0.0787,-0.0856,-0.0883,-0.0929,-0.1003,-0.1038,-0.1107,-0.1112,-0.1117,-0.1002,-0.1087,-0.1086,-0.1085,-0.1084,-0.1083,-0.1083,-0.1083,-0.0715,-0.0736,-0.0782,-0.0849,-0.0909,-0.097,-0.1044,-0.1129,-0.1165,-0.119,-0.1083,-0.1153,-0.1148,-0.1214,-0.1214,-0.1214,-0.1214,-0.1214,-0.1214,-0.0689,-0.0739,-0.0763,-0.0847,-0.087,-0.0972,-0.1082,-0.1112,-0.1172,-0.1121,-0.1219,-0.1165,-0.1161,-0.1154,-0.1216,-0.1216,-0.1215,-0.1215,-0.1215,-0.0701,-0.071,-0.0726,-0.0746,-0.0803,-0.0867,-0.1009,-0.1051,-0.1033,-0.1031,-0.1068,-0.1075,-0.1025,-0.1024,-0.1011,-0.1032,-0.103,-0.1029,0,-0.068,-0.0697,-0.0685,-0.0681,-0.0677,-0.0802,-0.076,-0.0826,-0.0909,-0.0878,-0.102,-0.1058,-0.1063,-0.1003,-0.0999,-0.098,0,0,0,-0.0672,-0.0656,-0.0634,-0.0634,-0.0616,-0.0662,-0.0748,-0.0737,-0.0914,-0.0898,-0.0983,-0.0995,-0.1105,-0.1221,-0.1161,-0.1156,-0.1142,0,0]},{"header":{"parameterUnit":"m.s-1","parameterCategory":2,"la1":30.2992,"la2":30.254,"lo1":-89.0895,"lo2":-89.0443,"dy":0.0025,"dx":0.0025,"nx":19,"ny":19,"refTime":"2026-05-16T09:00:00:Z","depth":"4","parameterNumber":3,"parameterNumberName":"V-component_of_CURRENTS"},"data":[0,0,0,-0.0102,-0.0101,-0.0023,-0.0023,0.0066,0.0066,0,0,0,0,0,0,0,0,0,0,0,-0.0134,-0.0134,-0.0102,-0.0101,-0.0023,-0.0023,0.0066,0.0066,0,0,0,0,0,0,0,0,0,0,0,-0.0134,-0.0134,-0.0134,-0.0101,-0.0023,-0.0023,0.0065,0.0013,0,0,0,0,0,0,0,0,0,0,-0.006,-0.0088,-0.0134,-0.0134,-0.01,-0.0023,-0.0022,0.001,0.0016,0.0023,0,0.0024,0,0.0043,0.0071,0.0071,0,0,0,-0.0088,-0.0092,-0.0078,-0.0134,-0.01,-0.0023,-0.0054,0.0014,0.002,0.003,0.0025,0.0029,0.0045,0.0071,0.0072,0.0213,0.0214,0,0,-0.0092,-0.0109,-0.0083,-0.0075,-0.0095,-0.0057,-0.0052,0.0018,0.0021,0.0025,0.0031,0.0046,0.0072,0.0072,0.0212,0.0213,0,0,0,-0.0113,-0.0112,-0.0099,-0.0079,-0.0066,-0.0055,-0.005,0.0019,0.002,0.0032,0.0047,0.0072,0.0073,0.0211,0.0212,0.0234,0,0,0,-0.0115,-0.0125,-0.0101,-0.0109,-0.0068,-0.002,-0.005,0.0016,0.0024,0.0047,0.0072,0.0073,0.021,0.0212,0.0231,0.0195,0,0,0,-0.0135,-0.0126,-0.0124,-0.011,-0.0082,-0.002,-0.0013,0.0018,0.0033,0.0071,0.0074,0.0209,0.0211,0.0228,0.0192,0.027,0,0,0,-0.0145,-0.0133,-0.0125,-0.0102,-0.0083,-0.0009,-0.0013,0.0047,0.0083,0.0072,0.021,0.0212,0.0227,0.0191,0.0267,0.0154,0,0,0,-0.0133,-0.0132,-0.0117,-0.0107,-0.0045,-0.0018,0.005,0.0088,0.0127,0.0185,0.0189,0.0232,0.0192,0.0269,0.0303,0,0,0,0,-0.0113,-0.01,-0.0078,-0.0046,0.0002,0.0035,0.0093,0.0135,0.0223,0.0157,0.0277,0.0251,0.0299,0.0229,0.0224,0.0224,0.0224,0.0224,0.0223,-0.0114,-0.0087,-0.0051,-0.0011,0.0023,0.009,0.0138,0.0208,0.0253,0.0316,0.0305,0.0418,0.0348,0.037,0.037,0.037,0.037,0.037,0.037,-0.0089,-0.0079,-0.0048,-0.0005,0.002,0.0068,0.0169,0.0224,0.0366,0.0369,0.0418,0.0299,0.0374,0.0373,0.0373,0.0372,0.0372,0.0372,0.0372,-0.0102,-0.0096,-0.0067,-0.0029,-0.0011,0.0042,0.0107,0.0215,0.0361,0.042,0.0412,0.0446,0.0405,0.0491,0.0491,0.0491,0.0492,0.0492,0.0492,-0.0141,-0.0109,-0.0083,-0.0055,-0.0053,-0.0019,0.0088,0.0185,0.0335,0.0406,0.045,0.0459,0.0455,0.0414,0.0495,0.0495,0.0494,0.0494,0.0494,-0.0154,-0.0142,-0.0099,-0.0089,-0.0083,-0.007,0.001,0.0177,0.0294,0.0408,0.0422,0.0424,0.0405,0.0403,0.0359,0.0426,0.0425,0.0424,0,-0.0174,-0.0162,-0.0095,-0.0085,-0.0096,-0.009,-0.0006,0.0109,0.0295,0.0282,0.0356,0.0366,0.0369,0.0339,0.0336,0.028,0,0,0,-0.0173,-0.0144,-0.01,-0.0075,-0.0099,-0.0044,0.002,0.0081,0.0228,0.0316,0.0395,0.0402,0.0402,0.0505,0.0483,0.0478,0.0411,0,0]}]]